Location: Bacea
(45.9500°N, 22.6667°E)
Time: 05:44:43
(UTC+00:00)

Cosmos 1953 - Pass Details

Date: 07 June 2022
Orbit: 533 x 555 km, 82.5° (Epoch: 03 July)

Event Time Altitude Azimuth Distance (km) Brightness Sun altitude
Rises 22:26:47 0° 336° (NNW) 2,706 7.0 -21.2°
Reaches altitude 10° 22:29:24 10° 319° (NW) 1,805 5.6 -21.2°
Maximum altitude 22:32:15 19° 273° (W) 1,302 4.2 -21.2°
Enters shadow 22:32:45 19° 262° (W) 1,319 4.1 -21.2°
